Погода в Старых Юрковичей

Россия / Брянская область     52°09′55″N   31°51′24″E
темп.,
°C
ветер,
м/с
пор.,
м/с
влажн.,
%
обл.,
%
осадки,
мм/ч
давл.,
гПа
погр.,
м
10 августа, ср
ср1000:00+16с3580100 0.0 102287
03:00+14с358199 0.0 102291
06:00+13ссв3686100 0.0 102298
09:00+19ссв3563100 0.0 1022389
12:00+23ссв5745100 0.0 10212032
15:00+24св6643100 0.0 10202469
18:00+22ссв595597 0.0 10211490
21:00+17ссв387498 0.0 1021199
11 августа, чт
чт1100:00+16ссв4874100 0.0 1021175
03:00+15св41082100 0.0 1020323
06:00+15св41096100 0.0 1020320
09:00+18всв5784100 0.0 1021548
12:00+23всв566599 0.0 10201027
15:00+25св5760100 0.0 10191081
18:00+25всв68616 0.0 10191126
21:00+20св410823 0.0 1020268
12 августа, пт
пт1200:00+19всв513855 0.3 1021341
03:00+17св41189100 0.3 1021249
06:00+17св51186100 0.0 1021258
09:00+22всв6964100 0.0 1021434
12:00+25всв6957100 0.0 1021765
15:00+26всв4658100 0.0 1020944
18:00+23вюв2274100 0.0 102168
21:00+21ссв3380100 0.0 102046
13 августа, сб
сб1300:00+20всв5147996 0.3 1020324
03:00+19всв61382100 0.4 1019316
06:00+18всв51087100 0.2 1018227
09:00+19всв4982100 0.2 1018243
12:00+24в5763100 0.0 1018547
15:00+25всв6859100 0.0 1017580
18:00+23всв51166100 0.0 1017442
21:00+22всв51377100 0.0 1016341
14 августа, вс
вс1400:00+22всв51371100 0.0 1015361
03:00+18св5128784 1.2 1015259
06:00+17всв5118894 0.3 1014218
09:00+21в5873100 0.3 1014310
12:00+27вюв5650100 0.0 1013684
15:00+29вюв474919 0.0 1013839
18:00+30в584899 0.0 1012834
21:00+23в4116837 0.0 1012228